User: anonymous
Location: Seagrave Observatory
(41.8500°N, 71.5833°W)
Time: 20:07:35
(UTC-04:00)
Language:

Iridium 21 - Orbit

View from above orbital plane
View from above orbital plane
View from above satellite
View from above satellite

Ground track
Ground track

The orbit data is extracted from the following two-line orbital elements,

1 25778U 99032B   14110.16872926  .00000403  00000-0  13676-3 0  6978
2 25778 086.3978 346.3466 0001856 104.1794 006.9239 14.34211895782701
Epoch (UTC): 20 April 2014 04:02:58
Eccentricity: 0.0001856
inclination: 86.3978°
perigee height: 776 km
apogee height: 779 km
right ascension of ascending node: 346.3466°
argument of perigee: 104.1794°
revolutions per day: 14.34211895
mean anomaly at epoch: 6.9239°
orbit number at epoch: 78270

The dashed part of the orbit path shows where the satellite is in the earth's shadow,  

DLR